Regional Weather Roundup
Issued by NWS State College, PA

Home | Current Version | Previous Version | Text Only | Print | Product List | Glossary On
Versions: 1 2 3 4 5 6 7 8 9 10 11 12 13 14 15 16 17 18 19 20 21 22 23 24 25 26 27 28 29 30 31 32 33 34 35 36 37 38 39 40 41 42 43 44 45 46 47 48 49 50
000
ASUS41 KCTP 231310
RWRCTP

REGIONAL WEATHER ROUNDUP
NATIONAL WEATHER SERVICE STATE COLLEGE PA
900 AM EDT THU MAR 23 2017

Note: "fair" indicates few or no clouds below 12,000 feet with no
significant weather and/or obstructions to visibility.

* = STATION THAT DOES NOT REPORT PRECIPITATION /E.G. RAIN...SNOW...ETC/
    THUNDER OR FOG.

PAZ002>004-007>009-013>016-020>023-029>032-231400-
WESTERN PENNSYLVANIA

CITY           SKY/WX    TMP DP  RH WIND       PRES   REMARKS
ERIE           SUNNY     25  18  74 S5        30.58R
MEADVILLE      SUNNY     22  15  75 E6        30.53R WCI  14
FRANKLIN*      SUNNY     19  12  73 E6        30.54R WCI  11
NEW CASTLE     NOT AVBL
BEAVER COUNTY  SUNNY     23  10  58 SE5       30.54R
BUTLER*        SUNNY     23  14  68 E5        30.55S
PITTSBURGH INT MOSUNNY   24  12  60 E8        30.54R
PITTSBURGH     SUNNY     24   8  50 E7        30.53R
INDIANA*       SUNNY     23  12  63 E7        30.57S WCI  15
LATROBE        SUNNY     23  10  58 NE8       30.55F WCI  14
WASHINGTON CO* SUNNY     25  10  54 NE7       30.54S
$$

PAZ004>006-010>012-017>019-024>028-033>037-041-042-045-046-049>053-231400-
CENTRAL PENNSYLVANIA

CITY           SKY/WX    TMP DP  RH WIND       PRES   REMARKS
BRADFORD       SUNNY     18  13  80 CALM      30.49R
DUBOIS         SUNNY     20  10  65 CALM      30.51R
CLEARFIELD       N/A    N/A N/A N/A MISG      30.56R
JOHNSTOWN      SUNNY     20   8  60 E6        30.47R WCI  12
ALTOONA        SUNNY     23   9  55 CALM      30.56R
STATE COLLEGE  SUNNY     23   9  54 CALM      30.58R
WILLIAMSPORT   SUNNY     25  11  55 W7        30.62R
SELINSGROVE    SUNNY     26  12  55 CALM      30.63S
FT INDIANTOWN  SUNNY     28   5  37 CALM      30.62R
CAPITAL CITY   SUNNY     30   6  36 VRB7      30.63S
HARRISBURG     SUNNY     29   9  43 VRB6      30.63R
YORK           SUNNY     28  10  46 N7        30.62R
$$

PAZ038>040-043-044-047-048-054-055-060>062-067>071-231400-
EASTERN PENNSYLVANIA

CITY           SKY/WX    TMP DP  RH WIND       PRES   REMARKS
SCRANTON       SUNNY     20   8  60 NW6       30.57R WCI  12
MOUNT POCONO   SUNNY     15   6  67 NW7       30.48R WCI   5
ALLENTOWN      SUNNY     26   8  46 N10       30.61R
QUAKERTOWN*    SUNNY     25   9  50 N10       30.61R WCI  15
READING        SUNNY     27   9  46 N5        30.62R
LANCASTER      SUNNY     28   9  44 N7        30.62R
COATESVILLE    SUNNY     27   7  43 N10       30.61S
POTTSTOWN      SUNNY     25   7  46 NW5       30.64R
BLUE BELL      SUNNY     27   9  46 NW5       30.62R
DOYLESTOWN     SUNNY     20   8  60 N8        30.60R WCI  10
WILLOW GROVE   NOT AVBL
NORTH PHILA    SUNNY     29   8  41 N14       30.64R
PHILADELPHIA   MOSUNNY   28   6  39 N15G21    30.64R
$$




USA.gov is the U.S. government's official web portal to all federal, state and local government web resources and services.